, AK

(GMT )
Deadhorse

Weather History for PASC - November, 2013

Change the Weather History Date:

Thursday, November 7, 2013

  Actual Average Record
Temperature  
Mean Temperature 4 °F -  
Max Temperature 9 °F 8 °F 28 °F (2003)
Min Temperature -2 °F 0 °F -25 °F (2005)
Degree Days  
Heating Degree Days 62    
Moisture  
Dew Point 3 °F    
Average Humidity 85    
Maximum Humidity 92    
Minimum Humidity 79    
Precipitation  
Precipitation 0.00 in - - ()
Sea Level Pressure  
Sea Level Pressure 30.06 in    
Wind  
Wind Speed 15 mph (ENE)    
Max Wind Speed 21 mph    
Max Gust Speed 32 mph    
Visibility 3 miles    
Events Snow    
Averages and records for this station are not official NWS values.
T = Trace of Precipitation, MM = Missing Value Source: NWS Daily Summary

Daily Weather History Graph

Daily Weather History Graph

Search for Another Location

Airport or City:

Trip Planner

Search our weather history database for the weather conditions in past years. The results will help you decide how hot, cold, wet, or windy it might be!

Date:

Astronomy

Nov. 07, 2013 Rise Set
Actual Time 10:01 AM AKST 3:12 PM AKST
Civil Twilight 8:37 AM AKST 4:36 PM AKST
Nautical Twilight 7:19 AM AKST 5:54 PM AKST
Astronomical Twilight 6:07 AM AKST 7:06 PM AKST
Moon 3:02 PM AKST (11/7) 6:58 PM AKST (11/7)
Length of Visible Light 7h 59m
Length of Day
5h 10m
Waxing Crescent, 24% of the Moon is Illuminated
Nov 7
Waxing Crescent
Nov 9
First Quarter
Nov 17
Full
Nov 25
Last Quarter
Dec 2
New

Hourly Weather History & Observations

Time (AKST) Temp. Windchill Dew Point Humidity Pressure Visibility Wind Dir Wind Speed Gust Speed Precip Events Conditions
12:53 AM -2.0 °F -18.7 °F -6.0 °F 83% 30.27 in 4.0 mi East 10.4 mph - N/A   Partly Cloudy
1:14 AM 1.4 °F -14.5 °F -2.2 °F 85% 30.26 in 3.0 mi East 10.4 mph - N/A   Mostly Cloudy
1:53 AM 1.9 °F -14.7 °F -0.9 °F 88% 30.25 in 3.0 mi East 11.5 mph - N/A   Overcast
2:43 AM 3.2 °F -12.2 °F -0.4 °F 85% 30.23 in 2.5 mi East 10.4 mph - N/A   Overcast
2:53 AM 3.0 °F -13.3 °F -0.0 °F 87% 30.23 in 2.0 mi East 11.5 mph - N/A   Overcast
3:11 AM 5.0 °F -10.0 °F 1.4 °F 85% 30.22 in 2.5 mi East 10.4 mph - N/A   Overcast
3:25 AM 6.8 °F -10.0 °F 1.4 °F 79% 30.21 in 2.5 mi East 13.8 mph - N/A   Overcast
3:53 AM 6.1 °F -10.9 °F 1.9 °F 83% 30.21 in 1.5 mi East 13.8 mph - N/A   Overcast
4:15 AM 6.8 °F -11.8 °F 1.4 °F 79% 30.19 in 2.0 mi ENE 17.3 mph - N/A   Overcast
4:28 AM 6.8 °F -11.8 °F 3.2 °F 85% 30.19 in 1.2 mi ENE 17.3 mph - N/A   Overcast
4:53 AM 7.0 °F -12.1 °F 3.0 °F 84% 30.17 in 1.2 mi ENE 18.4 mph - N/A   Overcast
5:35 AM 8.6 °F -11.0 °F 3.2 °F 79% 30.15 in 0.8 mi ENE 20.7 mph 29.9 mph N/A Snow Blowing Snow
5:47 AM 8.6 °F -11.0 °F 3.2 °F 79% 30.15 in 1.0 mi East 20.7 mph 28.8 mph N/A Snow Blowing Snow
5:53 AM 8.1 °F -11.2 °F 3.9 °F 83% 30.16 in 1.0 mi East 19.6 mph 28.8 mph N/A Snow Blowing Snow
6:53 AM 8.1 °F -10.2 °F 5.0 °F 87% 30.14 in 1.0 mi ENE 17.3 mph - N/A Snow Blowing Snow
7:53 AM 9.0 °F -9.0 °F 5.0 °F 84% 30.12 in 1.0 mi ENE 17.3 mph - N/A Snow Blowing Snow
8:53 AM 8.1 °F -11.7 °F 3.9 °F 83% 30.08 in 1.0 mi ENE 20.7 mph 29.9 mph 0.00 in Snow Blowing Snow
9:25 AM 8.6 °F -11.0 °F 5.0 °F 85% 30.06 in 0.8 mi ENE 20.7 mph 32.2 mph N/A Snow Blowing Snow
9:49 AM 8.6 °F -9.5 °F 6.8 °F 92% 30.06 in 1.0 mi ENE 17.3 mph - N/A Snow Blowing Snow
9:53 AM 9.0 °F -9.5 °F 5.0 °F 84% 30.07 in 0.8 mi ENE 18.4 mph - N/A Snow Blowing Snow
10:03 AM 8.6 °F -8.9 °F 6.8 °F 92% 30.06 in 1.0 mi East 16.1 mph - N/A Snow Blowing Snow
10:53 AM 8.1 °F -10.7 °F 3.9 °F 83% 30.06 in 1.0 mi ENE 18.4 mph - N/A Snow Blowing Snow
11:53 AM 8.1 °F -10.2 °F 3.9 °F 83% 30.04 in 1.5 mi ENE 17.3 mph - N/A Snow Blowing Snow
12:53 PM 9.0 °F -8.5 °F 5.0 °F 84% 30.02 in 2.0 mi East 16.1 mph - N/A Snow Blowing Snow
1:08 PM 8.6 °F -9.5 °F 5.0 °F 85% 30.01 in 3.0 mi ENE 17.3 mph - N/A Snow Blowing Snow
1:23 PM 8.6 °F -9.5 °F 5.0 °F 85% 30.00 in 5.0 mi ENE 17.3 mph - N/A Snow Blowing Snow
1:53 PM 8.1 °F -10.2 °F 5.0 °F 87% 30.00 in 5.0 mi ENE 17.3 mph - N/A Snow Blowing Snow
2:53 PM 6.1 °F -12.2 °F 1.9 °F 83% 29.98 in 6.0 mi ENE 16.1 mph - N/A Snow Blowing Snow
3:53 PM 6.1 °F -12.2 °F 1.9 °F 83% 29.97 in 5.0 mi ENE 16.1 mph - N/A Snow Blowing Snow
4:53 PM 7.0 °F -12.1 °F 3.0 °F 84% 29.95 in 6.0 mi East 18.4 mph - N/A Snow Blowing Snow
5:53 PM 7.0 °F -11.6 °F 3.0 °F 84% 29.94 in 9.0 mi ENE 17.3 mph - N/A Snow Blowing Snow
6:53 PM 7.0 °F -11.6 °F 3.9 °F 87% 29.94 in 8.0 mi East 17.3 mph - N/A   Clear
7:34 PM 6.8 °F -10.0 °F 3.2 °F 85% 29.94 in 6.0 mi East 13.8 mph - N/A   Scattered Clouds
7:53 PM 7.0 °F -9.1 °F 3.9 °F 87% 29.94 in 3.0 mi East 12.7 mph - N/A   Scattered Clouds
8:51 PM 8.6 °F -10.0 °F 5.0 °F 85% 29.91 in 2.0 mi ENE 18.4 mph - N/A   Scattered Clouds
8:53 PM 9.0 °F -9.5 °F 5.0 °F 84% 29.92 in 2.0 mi East 18.4 mph - N/A   Scattered Clouds
9:00 PM 8.6 °F -10.0 °F 5.0 °F 85% 29.91 in 3.0 mi East 18.4 mph - N/A   Scattered Clouds
9:39 PM 8.6 °F -10.0 °F 5.0 °F 85% 29.91 in 1.5 mi East 18.4 mph - N/A   Mostly Cloudy
9:53 PM 8.1 °F -11.2 °F 5.0 °F 87% 29.91 in 1.5 mi East 19.6 mph - N/A   Overcast
10:53 PM 9.0 °F -9.5 °F 5.0 °F 84% 29.91 in 1.5 mi East 18.4 mph - N/A   Overcast
11:08 PM 8.6 °F -10.0 °F 5.0 °F 85% 29.91 in 2.0 mi East 18.4 mph - N/A   Overcast
11:49 PM 6.8 °F -11.3 °F 3.2 °F 85% 29.91 in 2.5 mi ESE 16.1 mph - N/A   Overcast
11:53 PM 7.0 °F -11.0 °F 3.9 °F 87% 29.92 in 2.5 mi ESE 16.1 mph - N/A   Overcast